Location: Oberkirch
(48.5323°N, 8.0787°E)
Time: 17:25:02
(UTC+00:00)

Gurwin Techsat 1B - Visible Passes

Search period start: 14 March 2026 00:00
Search period end: 24 March 2026 00:00
Orbit: 809 x 812 km, 99.0° (Epoch: 13 March)

Date Brightness Start Highest point End Pass type
(mag) Time Alt. Az. Time Alt. Az. Time Alt. Az.
14 Mar 9.2 04:29:54 10° NNE 04:35:11 62° ESE 04:40:25 10° S visible
15 Mar 10.0 04:06:30 10° NNE 04:11:30 40° E 04:16:27 10° SSE visible
16 Mar 10.8 03:43:20 10° NE 03:47:44 26° E 03:52:06 10° SSE visible
17 Mar 11.4 03:20:32 10° NE 03:23:52 17° E 03:27:11 10° SE visible
17 Mar 8.6 04:59:01 10° NNE 05:04:20 79° WNW 05:09:38 10° SSW visible
18 Mar 9.0 04:35:27 10° NNE 04:40:45 68° ESE 04:46:02 10° S visible
19 Mar 9.9 04:12:01 10° NNE 04:17:05 44° E 04:22:08 10° S visible
20 Mar 10.7 03:48:47 10° NE 03:53:20 28° E 03:57:52 10° SSE visible
21 Mar 11.3 03:25:52 10° NE 03:29:29 18° E 03:33:06 10° SE visible
22 Mar 11.7 03:03:58 10° ENE 03:05:34 11° E 03:07:09 10° ESE visible
22 Mar 8.9 04:40:59 10° NNE 04:46:19 75° ESE 04:51:37 10° S visible
23 Mar 9.7 04:17:31 10° NNE 04:22:40 48° E 04:27:46 10° S visible
